Find Kosmos-1523

NORAD ID: 14612 Int'l Des: 1984-001 Owner: GUKOS Country: SU operational
LEOCIRCULAR

現在のビュー

3D地球を読み込み中...

About Kosmos-1523

Kosmos-1523 (NORAD 14612) is a satellite launched Jan 5, 1984 by GUKOS of SU. It operates in LEO, CIRCULAR orbit with a mass of 60.00 kg.

次回通過

Passes for default location (London). Set your location on the main map for personalized predictions.

高度履歴

Loading altitude history...

軌道要素

1 14612U 84001B 26194.61330589 -.00000010 00000-0 39253-4 0 9992
2 14612 74.0066 297.0877 0041463 173.2622 291.7202 12.58657050953616
Epoch: Jul 13, 2026 • Age: 11 hours

現在のステータス

高度 1470.1 km
遠地点 / 近地点 N/A
速度 7.12 km/s
衛星直下点 -52.02°S, 36.6°W
打ち上げ日 Jan 5, 1984
運用期間 42.5 years
タイプ other

技術仕様

分類 Payload
質量 60.00 kg
乾燥質量 60.00 kg
総質量 60.00 kg
長さ 0.80 m
直径 0.80 m
スパン 0.80 m
形状 Poly
製造者 NPOPM
バスタイプ Strela-1 11F625
フェーズステータス In Orbit
所有者/国 GUKOS/SU

Most Searched